Location: Antichan
(42.9728°N, 0.6667°E)
Time: 17:43:04
(UTC+00:00)

Cosmos 2208 Rocket - Pass Details

Date: 15 August 2020
Orbit: 755 x 805 km, 74.0° (Epoch: 17 September)

Event Time Altitude Azimuth Distance (km) Brightness Sun altitude
Rises 21:17:29 0° 341° (NNW) 3,251 8.4 -22.0°
Reaches altitude 10° 21:19:54 10° 344° (NNW) 2,313 7.3 -22.3°
Maximum altitude 21:25:08 68° 68° (ENE) 818 4.0 -23.0°
Enters shadow 21:25:55 59° 117° (ESE) 879 3.9 -23.1°
